Regional Weather Roundup
Issued by NWS

Home | Current Version | Previous Version | Text Only | Print | Product List | Glossary On
Versions: 1 2 3 4 5 6 7 8 9 10 11 12 13 14 15 16 17 18 19 20 21 22 23 24 25 26 27 28 29 30 31 32 33 34 35 36 37 38 39 40 41 42 43 44 45 46 47 48 49 50
000
ASUS43 KLSX 021159
RWRMO

WEATHER SUMMARY FOR MISSOURI
NATIONAL WEATHER SERVICE SPRINGFIELD MO
700 AM CDT TUE SEP 02 2014

NOTE: "FAIR" INDICATES FEW OR NO CLOUDS BELOW 12,000 FEET WITH NO
       SIGNIFICANT WEATHER AND/OR OBSTRUCTIONS TO VISIBILITY.
       CURRENT SKY AND/OR WEATHER CONDITIONS ARE NOT AVAILABLE FOR
       CHILLICOTHE AND FARMINGTON.

MOZ001>031-035>038-043-044-053-054-021300-
...NORTHERN AND WESTERN MISSOURI...

CITY           SKY/WX    TMP DP  RH WIND       PRES   REMARKS
KANSAS CTY INT MOCLDY    65  64  97 CALM      29.93S FOG
6HR MIN TEMP:  63; 6HR MAX TEMP:  69;

KANSAS C DTWN  MOCLDY    70  68  93 CALM      29.92R FOG
6HR MIN TEMP:  69; 6HR MAX TEMP:  73;

LEE`S SUMMIT   CLOUDY    69  68  96 CALM      29.94R FOG
6HR MIN TEMP:  69; 6HR MAX TEMP:  70;

ST JOSEPH      CLOUDY    60  60 100 N3        29.94R FOG
6HR MIN TEMP:  59; 6HR MAX TEMP:  65;

KIRKSVILLE     FOG       64  64 100 SW3       29.93R VSB<1/4
6HR MIN TEMP:  62; 6HR MAX TEMP:  69;


$$
MOZ066>068-077>081-088>096-101>105-021300-
...SOUTHWEST MISSOURI...

CITY           SKY/WX    TMP DP  RH WIND       PRES   REMARKS
SPRINGFIELD    RAIN      67  64  90 S13       30.02R
6HR MIN TEMP:  67; 6HR MAX TEMP:  73; 6HR PCP:  0.30;

JOPLIN         TSTM      67  66  97 SW7       29.99R
6HR MIN TEMP:  66; 6HR MAX TEMP:  70; 6HR PCP:  1.02;


$$
MOZ032>034-039>042-045>050-055>058-069>072-021300-
...CENTRAL MISSOURI...

CITY           SKY/WX    TMP DP  RH WIND       PRES   REMARKS
COLUMBIA       CLOUDY    69  69 100 NW6       29.94R
6HR MIN TEMP:  69; 6HR MAX TEMP:  70; 6HR PCP:  0.07;

JEFFERSON CITY CLOUDY    71  69  93 CALM      29.92S
6HR MIN TEMP:  70; 6HR MAX TEMP:  72; 6HR PCP:  0.12;

ROLLA            N/A    N/A N/A N/A MISG      29.94R
SEDALIA        CLOUDY    71  69  93 CALM      29.94R
6HR MIN TEMP:  71; 6HR MAX TEMP:  72;

OSAGE BEACH    CLOUDY    72  66  83 SW5       29.94S

$$
MOZ051-052-059>065-021300-
...EAST CENTRAL MISSOURI...

CITY           SKY/WX    TMP DP  RH WIND       PRES   REMARKS
ST LOUIS INTL  LGT RAIN  71  68  90 SW6       29.92R
6HR MIN TEMP:  70; 6HR MAX TEMP:  71; 6HR PCP:  0.21;

SPIRIT OF STL  CLOUDY    70  68  93 CALM      29.90S
6HR MIN TEMP:  69; 6HR MAX TEMP:  70; 6HR PCP:  0.18;

ST CHARLES     CLOUDY    70  69  97 CALM      29.92R
6HR MIN TEMP:  68; 6HR MAX TEMP:  70; 6HR PCP:  0.97;


$$
MOZ072>076-082>087-097>100-106>115-021300-
...SOUTH CENTRAL AND SOUTHEAST MISSOURI...

CITY           SKY/WX    TMP DP  RH WIND       PRES   REMARKS
CAPE GIRARDEAU CLOUDY    75  73  93 SW6       29.94F
6HR MIN TEMP:  75; 6HR MAX TEMP:  78;

FARMINGTON     CLOUDY    73  72  94 SW8       29.97R
6HR MIN TEMP:  73; 6HR MAX TEMP:  75; 6HR PCP:  0.04;

POPLAR BLUFF   CLOUDY    75  71  87 SW10      29.97R
6HR MIN TEMP:  75; 6HR MAX TEMP:  77;

WEST PLAINS    LGT RAIN  68  65  90 S7        30.01F
6HR MIN TEMP:  68; 6HR MAX TEMP:  77; 6HR PCP:  0.18;


$$



USA.gov is the U.S. government's official web portal to all federal, state and local government web resources and services.